| time (UTC) | temp C | wind direction | speed KPH | gust KPH | rain 1hr cm | rain 24hr cm | rain mn cm | humidity % | barometer mb |
| 20260506103030 | 9 | 0 | 0.0 | 0.0 | 0.00 | 0.13 | 0.00 | 88 | 1018.2 |
| 20260506101530 | 9 | 0 | 0.0 | 0.0 | 0.00 | 0.13 | 0.00 | 90 | 1018.2 |
| 20260506100028 | 8 | 0 | 0.0 | 0.0 | 0.00 | 0.13 | 0.00 | 89 | 1018.2 |
| 20260506094530 | 8 | 0 | 0.0 | 0.0 | 0.00 | 0.13 | 0.00 | 91 | 1018.1 |
| 20260506093032 | 8 | 0 | 0.0 | 0.0 | 0.00 | 0.13 | 0.00 | 88 | 1018.2 |
| 20260506091530 | 8 | 0 | 0.0 | 0.0 | 0.00 | 0.13 | 0.00 | 90 | 1018.2 |
| 20260506090030 | 8 | 0 | 0.0 | 0.0 | 0.00 | 0.13 | 0.00 | 89 | 1018.3 |
| 20260506084530 | 9 | 0 | 0.0 | 0.0 | 0.00 | 0.13 | 0.00 | 89 | 1018.4 |
| 20260506083029 | 8 | 0 | 0.0 | 0.0 | 0.00 | 0.13 | 0.00 | 90 | 1018.5 |
| 20260506081529 | 8 | 0 | 0.0 | 0.0 | 0.00 | 0.13 | 0.00 | 89 | 1018.4 |
| 20260506073030 | 9 | 0 | 0.0 | 0.0 | 0.00 | 0.13 | 0.00 | 89 | 1018.0 |
| 20260506071533 | 9 | 0 | 0.0 | 0.0 | 0.00 | 0.13 | 0.00 | 88 | 1017.9 |
| 20260506061535 | 10 | 0 | 0.0 | 0.0 | 0.00 | 0.13 | 0.13 | 87 | 1017.4 |
| 20260506044538 | 10 | 0 | 0.0 | 0.0 | 0.00 | 0.13 | 0.13 | 86 | 1016.7 |
| 20260506043028 | 10 | 0 | 0.0 | 0.0 | 0.00 | 0.13 | 0.13 | 85 | 1016.6 |
| 20260506041528 | 10 | 0 | 0.0 | 0.0 | 0.00 | 0.13 | 0.13 | 84 | 1016.5 |
| 20260506040051 | 10 | 0 | 0.0 | 0.0 | 0.00 | 0.13 | 0.13 | 83 | 1016.2 |
| 20260506034534 | 10 | 0 | 0.0 | 0.0 | 0.00 | 0.13 | 0.13 | 84 | 1016.1 |
| 20260506033028 | 10 | 0 | 0.0 | 0.0 | 0.00 | 0.13 | 0.13 | 83 | 1015.9 |
| 20260506031542 | 11 | 0 | 0.0 | 0.0 | 0.00 | 0.13 | 0.13 | 82 | 1015.7 |
| 20260506030029 | 11 | 0 | 0.0 | 0.0 | 0.00 | 0.13 | 0.13 | 81 | 1015.6 |
| 20260506024554 | 11 | 0 | 0.0 | 0.0 | 0.00 | 0.13 | 0.13 | 80 | 1015.4 |
| 20260506023030 | 12 | 0 | 0.0 | 0.0 | 0.00 | 0.13 | 0.13 | 78 | 1015.2 |
| 20260506021528 | 13 | 0 | 0.0 | 0.0 | 0.00 | 0.13 | 0.13 | 74 | 1015.2 |
| 20260506020030 | 13 | 0 | 0.0 | 0.0 | 0.00 | 0.13 | 0.13 | 72 | 1015.0 |
| 20260506014531 | 13 | 0 | 0.0 | 0.0 | 0.00 | 0.13 | 0.13 | 72 | 1015.0 |
| 20260506013030 | 14 | 0 | 0.0 | 3.2 | 0.00 | 0.13 | 0.13 | 70 | 1014.9 |
| 20260506011529 | 14 | 0 | 1.6 | 11.3 | 0.00 | 0.13 | 0.13 | 68 | 1015.0 |
| 20260506010031 | 15 | 0 | 0.0 | 6.4 | 0.00 | 0.13 | 0.13 | 66 | 1015.2 |
| 20260506004530 | 15 | 0 | 0.0 | 0.0 | 0.00 | 0.13 | 0.13 | 67 | 1015.0 |
| 20260506003028 | 15 | 0 | 0.0 | 0.0 | 0.00 | 0.13 | 0.13 | 66 | 1015.0 |
| 20260506001528 | 15 | 0 | 0.0 | 3.2 | 0.00 | 0.13 | 0.13 | 66 | 1015.1 |
| 20260506000029 | 15 | 0 | 0.0 | 0.0 | 0.00 | 0.13 | 0.13 | 69 | 1015.1 |
| 20260505234527 | 15 | 0 | 0.0 | 0.0 | 0.00 | 0.13 | 0.13 | 69 | 1015.1 |
| 20260505233031 | 15 | 0 | 0.0 | 1.6 | 0.00 | 0.13 | 0.13 | 72 | 1015.1 |
| 20260505231544 | 15 | 0 | 0.0 | 0.0 | 0.00 | 0.13 | 0.13 | 67 | 1015.1 |
| 20260505230032 | 15 | 0 | 0.0 | 0.0 | 0.00 | 0.13 | 0.13 | 66 | 1015.1 |
| 20260505224530 | 15 | 0 | 0.0 | 4.8 | 0.00 | 0.13 | 0.13 | 65 | 1015.2 |
| 20260505223030 | 15 | 0 | 0.0 | 9.7 | 0.00 | 0.13 | 0.13 | 67 | 1015.2 |
| 20260505221528 | 15 | 312 | 0.0 | 11.3 | 0.00 | 0.13 | 0.13 | 66 | 1015.2 |
| 20260505220038 | 15 | 0 | 0.0 | 1.6 | 0.00 | 0.13 | 0.13 | 70 | 1015.0 |
| 20260505214535 | 14 | 0 | 0.0 | 0.0 | 0.00 | 0.13 | 0.13 | 68 | 1015.2 |
| 20260505213027 | 14 | 0 | 0.0 | 0.0 | 0.00 | 0.13 | 0.13 | 73 | 1015.3 |
| 20260505211528 | 14 | 0 | 0.0 | 0.0 | 0.00 | 0.13 | 0.13 | 76 | 1015.3 |
| 20260505210029 | 14 | 0 | 0.0 | 0.0 | 0.00 | 0.13 | 0.13 | 75 | 1015.2 |
| 20260505204534 | 13 | 0 | 0.0 | 0.0 | 0.00 | 0.13 | 0.13 | 77 | 1015.1 |
| 20260505203032 | 13 | 0 | 0.0 | 0.0 | 0.00 | 0.13 | 0.13 | 79 | 1015.0 |
| 20260505201528 | 13 | 0 | 0.0 | 0.0 | 0.00 | 0.13 | 0.13 | 82 | 1015.0 |
| 20260505200039 | 13 | 0 | 0.0 | 6.4 | 0.00 | 0.13 | 0.13 | 80 | 1015.0 |
| 20260505194529 | 13 | 0 | 0.0 | 9.7 | 0.00 | 0.13 | 0.13 | 80 | 1015.1 |
| 20260505193029 | 13 | 0 | 1.6 | 9.7 | 0.00 | 0.13 | 0.13 | 82 | 1015.1 |
| 20260505191530 | 13 | 0 | 0.0 | 11.3 | 0.00 | 0.13 | 0.13 | 82 | 1015.0 |
| 20260505190035 | 12 | 0 | 0.0 | 14.5 | 0.00 | 0.13 | 0.13 | 85 | 1015.0 |
| 20260505184530 | 13 | 0 | 1.6 | 19.3 | 0.00 | 0.13 | 0.13 | 84 | 1015.0 |
| 20260505183032 | 13 | 0 | 1.6 | 17.7 | 0.00 | 0.13 | 0.13 | 84 | 1014.9 |
| 20260505181529 | 13 | 269 | 4.8 | 17.7 | 0.00 | 0.13 | 0.13 | 88 | 1014.8 |
| 20260505180032 | 13 | 277 | 0.0 | 11.3 | 0.00 | 0.13 | 0.13 | 90 | 1014.7 |
| 20260505174537 | 12 | 0 | 0.0 | 11.3 | 0.00 | 0.15 | 0.13 | 93 | 1014.6 |
| 20260505173030 | 11 | 270 | 1.6 | 6.4 | 0.00 | 0.15 | 0.13 | 93 | 1014.5 |
| 20260505171528 | 11 | 263 | 1.6 | 9.7 | 0.00 | 0.15 | 0.13 | 93 | 1014.3 |
| 20260505170030 | 11 | 0 | 0.0 | 9.7 | 0.00 | 0.15 | 0.13 | 94 | 1014.4 |
| 20260505164531 | 11 | 0 | 0.0 | 6.4 | 0.00 | 0.15 | 0.13 | 95 | 1014.2 |
| 20260505163031 | 11 | 0 | 0.0 | 1.6 | 0.00 | 0.15 | 0.13 | 95 | 1014.1 |
| 20260505161529 | 11 | 0 | 0.0 | 3.2 | 0.00 | 0.15 | 0.13 | 95 | 1014.1 |
| 20260505153030 | 10 | 0 | 0.0 | 4.8 | 0.00 | 0.15 | 0.13 | 95 | 1013.8 |
| 20260505151531 | 10 | 0 | 0.0 | 0.0 | 0.00 | 0.15 | 0.13 | 95 | 1013.7 |
| 20260505124535 | 10 | 0 | 0.0 | 0.0 | 0.03 | 0.10 | 0.08 | 95 | 1012.9 |
| 20260505123027 | 10 | 0 | 0.0 | 0.0 | 0.03 | 0.10 | 0.08 | 95 | 1012.8 |
| 20260505121531 | 10 | 0 | 0.0 | 0.0 | 0.05 | 0.10 | 0.08 | 95 | 1012.9 |
| 20260505120028 | 10 | 0 | 0.0 | 0.0 | 0.05 | 0.10 | 0.08 | 94 | 1012.9 |
| 20260505114530 | 10 | 0 | 0.0 | 0.0 | 0.05 | 0.08 | 0.05 | 94 | 1012.8 |
| 20260505113028 | 10 | 0 | 0.0 | 0.0 | 0.05 | 0.08 | 0.05 | 94 | 1012.8 |
| 20260505111536 | 10 | 0 | 0.0 | 0.0 | 0.03 | 0.05 | 0.03 | 94 | 1012.9 |